This is the latest recevied weather packets stored in our database for station/object WD9EKA. If no packets are shown the sender has not sent any weather packets the latest 10 day(s).
| Time | Temp. | Humidity | Pressure | Rain* | Wind** | Luminosity | Snow |
|---|---|---|---|---|---|---|---|
| 1778001874 | 10° C | 99% | 1004.3 hPa | 0.25 mm | - | - | - |
| 1778001557 | 10° C | 99% | 1004.3 hPa | 0.25 mm | - | - | - |
| 1778001237 | 10° C | 99% | 1004.2 hPa | 0.51 mm | - | - | - |
| 1778000914 | 10° C | 99% | 1004.1 hPa | 0.51 mm | - | - | - |
| 1778000245 | 9.44° C | 99% | 1003.5 hPa | 0.76 mm | - | - | - |
| 1777999605 | 9.44° C | 99% | 1003.7 hPa | 1.52 mm | - | - | - |
| 1777999293 | 9.44° C | 99% | 1003.7 hPa | 1.78 mm | - | - | - |
| 1777998981 | 9.44° C | 99% | 1004 hPa | 2.03 mm | - | - | - |
| 1777998661 | 8.89° C | 99% | 1003.9 hPa | 2.54 mm | - | - | - |
| 1777998341 | 8.89° C | 99% | 1004.3 hPa | 2.79 mm | - | - | - |
| 1777998034 | 8.89° C | 99% | 1004.3 hPa | 3.05 mm | - | - | - |
| 1777997717 | 8.89° C | 99% | 1004.2 hPa | 3.05 mm | - | - | - |
| 1777997397 | 8.89° C | 99% | 1004.1 hPa | 3.05 mm | - | - | - |
| 1777997074 | 8.89° C | 99% | 1004.4 hPa | 3.05 mm | - | - | - |
| 1777996757 | 8.89° C | 99% | 1004.5 hPa | 3.05 mm | - | - | - |
| 1777996437 | 9.44° C | 99% | 1004.5 hPa | 2.79 mm | - | - | - |
| 1777996113 | 9.44° C | 99% | 1004.9 hPa | 2.29 mm | - | - | - |
| 1777995798 | 9.44° C | 99% | 1005 hPa | 2.29 mm | - | - | - |
| 1777995477 | 9.44° C | 99% | 1004.7 hPa | 1.78 mm | - | - | - |
| 1777995154 | 8.89° C | 99% | 1004.9 hPa | 1.52 mm | - | - | - |
| 1777994837 | 8.89° C | 99% | 1005 hPa | 1.27 mm | - | - | - |
| 1777994517 | 8.89° C | 99% | 1004.5 hPa | 1.02 mm | - | - | - |
| 1777994197 | 8.89° C | 99% | 1005 hPa | 1.02 mm | - | - | - |
| 1777993877 | 9.44° C | 99% | 1004.7 hPa | 1.02 mm | - | - | - |
| 1777993558 | 9.44° C | 99% | 1004.8 hPa | 1.02 mm | - | - | - |
* Rain latest hour (hover to see other rain measurements)
** Current wind speed in m/s (hover to see current wind gust speed)